#timestamp,LO_Frequency,Hit,StdDev 
1622894415.2,286047000.2,N
1622894435.1,286047000.9,N
1622894436.0,286047000.9,N
1622894455.8,286047000.9,N
1622894475.7,286047001.0,N
1622894495.5,286047001.0,N
1622894515.3,286047000.4,N
1622894535.2,286047000.5,N
1622894555.0,286047000.6,N
1622894555.9,286047000.6,N
1622894575.8,286047001.0,N
1622894595.6,286047000.8,N
1622894615.4,286047000.9,N
1622894635.3,286047000.6,N
1622894655.1,286047001.0,N
1622894675.8,286047000.5,N
1622894695.7,286047000.6,N
1622894715.5,286047000.7,N
1622894735.4,286047000.8,N
1622894755.2,286047001.1,N
1622894775.0,286046998.5,N
1622894775.9,286046998.5,N
1622894795.8,286046998.3,N
1622894815.6,286046998.3,N
1622894835.5,286046998.6,N
1622894855.3,286046999.0,N
1622894875.1,286046998.8,N
1622894895.9,286046998.1,N
1622894915.7,286046998.5,N
1622894935.5,286046998.8,N
1622894955.4,286046998.6,N
1622894975.2,286046998.4,N
1622894995.1,286046998.8,N
1622894996.0,286046998.8,N
1622895015.8,286046999.2,N
1622895035.6,286046998.2,N
1622895055.5,286046999.0,N
1622895075.3,286046999.3,N
1622895095.2,286046999.0,N
1622895115.9,286046999.0,N
1622895135.7,286046999.3,N
1622895155.6,286046996.6,Y
1622895175.4,286046998.5,P
1622895195.3,286046998.5,P
1622895215.1,286046998.5,P
1622895216.0,286046998.5,Y
1622895235.8,286047000.6,P
1622895255.7,286047000.1,N
1622895275.5,286046999.8,N
1622895295.3,286047002.7,Y
1622895315.2,286046999.8,P
1622895335.0,286047002.7,P
1622895335.9,286047002.7,N
1622895355.8,286047000.1,N
1622895375.6,286047000.2,N
1622895395.4,286046999.9,N
1622895415.3,286047000.4,N
1622895435.1,286047000.5,N
1622895455.9,286047000.9,N
1622895475.7,286047000.3,N
1622895495.5,286047000.3,N
1622895515.4,286047001.1,N
1622895535.2,286047000.0,N
1622895555.0,286047000.9,N
1622895555.9,286047000.9,N
1622895575.8,286047000.9,N
1622895595.6,286047000.7,N
1622895615.5,286047000.6,N
1622895635.3,286047000.7,N
1622895655.1,286047000.9,N
1622895675.9,286047000.6,N
1622895695.7,286047000.6,N
1622895715.6,286047000.6,N
1622895735.4,286047000.0,N
1622895755.2,286047000.3,N
1622895775.1,286047000.5,N
1622895776.0,286047000.5,N
1622895795.8,286047000.3,N
1622895815.6,286047000.3,N
1622895835.5,286046999.9,N
1622895855.3,286047000.2,N
1622895875.2,286047000.0,N
1622895895.9,286047000.3,N
1622895915.7,286047002.8,Y
1622895935.6,286047000.6,P
1622895955.4,286047000.1,N
1622895975.2,286047000.9,P
1622895995.1,286047000.4,N
1622895996.0,286047000.4,N
1622896015.8,286047000.5,N
1622896035.7,286047000.9,Y
1622896055.5,286047000.8,P
1622896075.3,286047000.7,P
1622896095.2,286046998.5,P
1622896115.0,286047000.0,N
1622896115.9,286047000.0,N
1622896135.8,286047000.4,N
1622896155.6,286047000.7,N
1622896175.4,286047001.0,N
1622896195.3,286047000.9,N
1622896215.1,286047000.6,N
1622896235.8,286047000.4,N
1622896255.7,286047001.0,N
1622896275.5,286047000.2,N
1622896295.4,286047001.0,N
1622896315.2,286047000.5,N
1622896335.0,286047000.4,N
1622896335.9,286047000.4,N
1622896355.8,286047001.0,N
1622896375.6,286047000.5,N
1622896395.5,286047000.0,N
1622896415.3,286047000.3,N
1622896435.1,286047001.0,N
1622896455.9,286047000.3,N
1622896475.7,286047000.0,N
1622896495.5,286047000.3,N
1622896515.4,286047000.4,N
1622896535.2,286047000.5,N
1622896555.1,286047000.3,N
1622896556.0,286047000.3,N
1622896575.8,286046999.9,N
1622896595.6,286046999.9,N
1622896615.5,286047000.2,N
1622896635.3,286047000.5,N
1622896655.1,286047000.5,N
1622896675.9,286046999.8,N
1622896695.7,286047000.3,N
1622896715.6,286047000.4,N
1622896735.4,286047000.3,N
1622896755.2,286047000.5,N
1622896775.1,286047000.4,N
1622896776.0,286047000.4,N
1622896795.8,286047000.4,N
1622896815.7,286047000.0,N
1622896835.5,286047000.3,N
1622896855.3,286047001.1,Y
1622896875.2,286047000.6,P
1622896895.0,286047000.4,N
1622896895.9,286047000.4,P
1622896915.8,286047000.9,Y
1622896935.6,286046998.5,P
1622896955.4,286047001.0,N
1622896975.3,286047001.0,N
1622896995.1,286047000.9,N
1622897015.8,286047000.0,N
1622897035.7,286047000.9,N
1622897055.5,286047000.6,N
1622897075.4,286047000.5,N
1622897095.2,286047000.0,N
1622897115.0,286047001.0,N
1622897115.9,286047001.0,N
1622897135.8,286047000.0,N
1622897155.6,286046999.8,N
1622897175.5,286047000.1,N
1622897195.3,286046999.9,N
1622897215.1,286047000.9,N
1622897235.9,286047000.5,N
1622897255.7,286047000.3,N
1622897275.5,286047002.8,Y
1622897295.4,286047000.5,P
1622897315.2,286047000.6,P
1622897335.1,286047001.0,P
1622897336.0,286047001.0,Y
1622897355.8,286047001.0,P
1622897375.6,286047000.8,P
1622897395.5,286046999.0,P
1622897415.3,286046999.0,N
1622897435.2,286046998.6,N
1622897485.9,286046998.1,E
1622897495.8,286047000.7,N
1622897515.7,286046999.7,P
1622897535.5,286047000.1,N
1622897555.4,286046999.8,N
1622897575.2,286047002.3,Y
1622897595.0,286047002.4,P
1622897595.9,286047002.4,N
1622897615.8,286047002.7,N
1622897635.6,286047002.1,N
1622897655.5,286046999.8,N
1622897675.3,286047002.1,N
1622897695.1,286047002.3,N
1622897715.9,286047002.7,N
1622897735.7,286047002.4,N
1622897755.5,286047001.8,N
1622897775.4,286047002.7,N
1622897795.2,286047002.1,N
1622897815.1,286047000.2,N
1622897816.0,286047000.2,N
1622897835.8,286047000.0,N
1622897855.6,286047002.3,N
1622897875.5,286047002.4,N
1622897895.3,286047000.1,N
1622897915.1,286047000.1,N
1622897935.9,286047002.7,N
1622897955.7,286047002.3,N
1622897975.6,286047002.7,N
1622897995.4,286047001.5,N
